{"data":{"norad_id":49154,"epoch":"2026-05-25T03:23:22.060320Z","epoch_age_seconds":59960,"freshness":"FRESH","line1":"1 49154U 21082AA  26145.14122755  .00000061  00000+0  13132-4 0  9991","line2":"2 49154  70.0002  82.7142 0002974 264.3419  95.7400 14.97521457258970","mean_motion":14.97521457,"eccentricity":0.0002974,"inclination_deg":70.0002,"raan_deg":82.7142,"arg_perigee_deg":264.3419,"mean_anomaly_deg":95.74,"bstar":1.3132e-5,"rev_number":25897,"period_min":96.158889294633,"perigee_km":572.48963709595,"apogee_km":576.62509970628,"semimajor_km":6952.6943684011,"source":"CELESTRAK","updated_at":"2026-05-25T13:38:16.788922Z"}}